Location: Unspecified
(22.6800°N, 112.2000°E)
Time: 22:05:37
(UTC+08:00)

Vanguard 1 Rocket - All Passes

Search period start: 04 August 2021 00:00
Search period end: 14 August 2021 00:00
Orbit: 650 x 4226 km, 34.3° (Epoch: 02 August)

Date Brightness Start Highest point End Pass type
(mag) Time Alt. Az. Time Alt. Az. Time Alt. Az.
04 Aug - 04:10:40 10° S 04:24:42 18° SE 04:38:57 10° ESE visible
04 Aug - 06:32:29 10° SSW 06:57:19 53° SE 07:16:49 10° ENE daylight
04 Aug - 09:03:53 10° WSW 09:29:43 83° NNW 09:44:42 10° ENE daylight
04 Aug - 11:42:06 10° W 12:00:46 51° NNW 12:10:24 10° ENE daylight
04 Aug - 14:18:32 10° WNW 14:29:51 51° NNE 14:35:55 10° E daylight
04 Aug - 16:49:06 10° WNW 16:55:34 44° SW 16:59:58 10° SE daylight
05 Aug - 05:20:21 10° SSW 05:42:12 38° SE 06:02:19 10° E visible
05 Aug - 07:48:13 10° SW 08:14:52 80° SSE 08:32:46 10° ENE daylight
05 Aug - 10:24:03 10° W 10:46:57 61° NNW 10:59:12 10° ENE daylight
05 Aug - 13:02:44 10° WNW 13:17:21 47° N 13:24:55 10° ENE daylight
05 Aug - 15:35:36 10° WNW 15:44:44 89° SSW 15:49:54 10° ESE daylight
06 Aug - 04:10:14 10° S 04:27:19 24° SE 04:45:02 10° E visible
06 Aug - 06:34:07 10° SW 06:59:39 63° SE 07:20:01 10° ENE daylight
06 Aug - 09:06:36 10° WSW 09:32:28 74° NNW 09:47:43 10° ENE daylight
06 Aug - 11:45:24 10° WNW 12:04:05 50° N 12:13:45 10° ENE daylight
06 Aug - 14:21:18 10° WNW 14:33:10 62° NNE 14:39:19 10° E daylight
06 Aug - 16:52:26 10° W 16:58:16 28° SW 17:02:24 10° SSE daylight
07 Aug - 03:05:06 10° SSE 03:12:36 12° SE 03:20:33 10° ESE visible
07 Aug - 05:21:35 10° SSW 05:44:27 46° SE 06:05:59 10° ENE visible
07 Aug - 07:50:32 10° WSW 08:17:23 90° SSE 08:35:44 10° ENE daylight
07 Aug - 10:27:17 10° W 10:50:05 57° NNW 11:02:24 10° ENE daylight
07 Aug - 13:05:41 10° WNW 13:20:44 52° N 13:28:23 10° E daylight
07 Aug - 15:38:27 10° WNW 15:47:40 64° SW 15:52:53 10° SE daylight
08 Aug - 04:10:44 10° S 04:29:37 31° SE 04:49:49 10° E visible
08 Aug - 06:36:03 10° SW 07:01:57 73° SE 07:23:03 10° ENE daylight
08 Aug - 09:09:33 10° WSW 09:35:21 68° NNW 09:50:45 10° ENE daylight
08 Aug - 11:48:37 10° WNW 12:07:28 51° N 12:17:10 10° ENE daylight
08 Aug - 14:24:01 10° WNW 14:36:20 78° NNE 14:42:36 10° ESE daylight
08 Aug - 16:56:15 10° W 17:00:49 18° SW 17:04:20 10° S daylight
09 Aug - 03:02:34 10° SSE 03:15:13 18° SE 03:29:28 10° E visible
09 Aug - 05:23:09 10° SSW 05:46:36 55° SE 06:09:16 10° ENE visible
09 Aug - 07:53:06 10° WSW 08:19:59 82° NNW 08:38:41 10° ENE daylight
09 Aug - 10:30:36 10° W 10:53:19 55° N 11:05:41 10° ENE daylight
09 Aug - 13:08:31 10° WNW 13:24:04 60° NNE 13:31:49 10° E daylight
09 Aug - 15:41:26 10° WNW 15:50:23 45° SW 15:55:37 10° SSE daylight
10 Aug - 04:11:48 10° SSW 04:31:44 39° SE 04:53:49 10° ENE visible
10 Aug - 06:38:16 10° SW 07:04:17 82° SSE 07:25:58 10° ENE daylight
10 Aug - 09:12:41 10° W 09:38:21 63° NNW 09:53:53 10° ENE daylight
10 Aug - 11:51:42 10° WNW 12:10:52 55° N 12:20:37 10° E daylight
10 Aug - 14:26:43 10° WNW 14:39:20 83° SSW 14:45:43 10° ESE daylight
10 Aug - 17:01:24 10° WSW 17:03:16 11° SW 17:04:57 10° SW daylight
11 Aug - 03:02:24 10° S 03:17:31 24° SE 03:35:26 10° E visible
11 Aug - 05:25:02 10° SW 05:48:43 65° SE 06:12:20 10° ENE visible
11 Aug - 07:55:55 10° WSW 08:22:42 74° NNW 08:41:39 10° ENE daylight
11 Aug - 10:33:52 10° W 10:56:39 55° N 11:09:03 10° ENE daylight
11 Aug - 13:11:13 10° WNW 13:27:18 71° NNE 13:35:09 10° ESE daylight
11 Aug - 15:44:40 10° WNW 15:52:55 31° SW 15:58:02 10° SSE daylight
12 Aug - 01:59:06 10° SE 02:03:44 11° SE 02:08:42 10° ESE visible
12 Aug - 04:13:17 10° SSW 04:33:43 47° SE 04:57:19 10° ENE visible
12 Aug - 06:40:44 10° WSW 07:06:43 89° NNW 07:28:50 10° ENE daylight
12 Aug - 09:15:56 10° W 09:41:29 60° NNW 09:57:05 10° ENE daylight
12 Aug - 11:54:37 10° WNW 12:14:12 60° N 12:24:03 10° E daylight
12 Aug - 14:29:27 10° WNW 14:42:07 63° SW 14:48:38 10° SE daylight
13 Aug - 03:03:09 10° S 03:19:33 31° SE 03:40:05 10° E visible
13 Aug - 05:27:11 10° SW 05:50:52 74° SE 06:15:13 10° ENE visible
13 Aug - 07:58:57 10° WSW 08:25:34 69° NNW 08:44:41 10° ENE daylight
13 Aug - 10:37:03 10° WNW 11:00:01 57° N 11:12:27 10° E daylight
13 Aug - 13:13:50 10° WNW 13:30:22 85° NNE 13:38:21 10° ESE daylight
13 Aug - 15:48:18 10° W 15:55:18 22° SW 16:00:02 10° S daylight
